COSMOS 1275 DEB, 39960

Orbit data source: Space-Track

COSMOS 1275 DEB, 39960 is space debris in LEO originally from a launch on Thu, 04 Jun 1981 UTC launched from the Plesetsk Missile And Space Complex (PKMTR). Debris objects in space refer to the collection of defunct objects orbiting the Earth. Examples of debris include non-operational satellites, rocket bodies, and fragments generated from explosions, collisions, or faulty payload assembly.

Loading next visibility...
Identifier
39960, 1981-053NW
Orbit
LEO
Country
Flag of CISCIS
Related business
Manufacturer
Unknown
Mission
Spacecraft
Bus & Motor
Unknown
Mass
Unknown
Launch date (UTC)
1981-06-04 (45 years ago)
Launch vehicle
Unknown
Launch site
Plesetsk Missile And Space Complex (PKMTR)
Object type
Payload
Rocket body
Debris
Shape & HBR
Unknown shape, 0.1 m
Radar Cross Section
Small (<0.1 m²)

Expand to show TLE details & history
Last TLE update: 6 days ago

TLE from 6 days ago
0 COSMOS 1275 DEB
1 39960U 81053NW  25341.88619756  .00000549  00000-0  74600-3 0  9997
2 39960  83.1438 307.9386 0237669 180.3404 179.7615 13.46613258546421
Epoch: 2025-12-07T21:16Z
TLE epoch observation values (Epoch: 2025-12-07T21:16:07.469Z)
Latitude
-0°
Longitude
-87.98567°
Altitude
1,265.014 km
Speed
7.137 km/s
True Right ascension
20h 31m 45s
True Declination
0° 00' 00"
Sunlit
Object was in daylight at epoch
Visualization orbit readout
Latitude
Unknown
Longitude
Unknown
Altitude
Unknown
Speed
Unknown
Apparent Right ascension
Unknown
Apparent Declination
Unknown
Sunlit
N/A
Visualization observer readout
Local Sidereal Time
17:02:51
Azimuth
Unknown
Elevation
Unknown
Doppler factor
Unknown
Orbital elements
Apogee altitude
1,259.226 km
Perigee altitude
904.621 km
Semi-major axis
7,460.061 km
Eccentricity
0.02377
Inclination
83.1438°
RAAN
307.9386°
Arg. of periapsis
180.3404°
True anomaly
179.77251°
Mean anomaly
179.7615°
Eccentric anomaly
179.76704°
Mean motion
3.36845 °/min
Orbital period
106.87 mins
BSTAR
0.000746
Loading maneuver chart data...
Computing Atmospheric mass density...
Loading historical data...
Loading historical data...
Loading historical data...
Loading historical data...
Loading historical data...
Loading historical data...
Loading historical data...

Documentation

Showing up to 5 results
|